TimeCDT,TemperatureF,Dew PointF,Humidity,Sea Level PressureIn,VisibilityMPH,Wind Direction,Wind SpeedMPH,Gust SpeedMPH,PrecipitationIn,Events,Conditions,WindDirDegrees,DateUTC
12:52 AM,32.0,26.1,79,30.35,10.0,NW,10.4,-,N/A,,Clear,320,2012-10-05 05:52:00
1:52 AM,28.0,25.0,88,30.36,10.0,NW,5.8,-,N/A,,Clear,310,2012-10-05 06:52:00
2:52 AM,28.0,24.1,85,30.36,10.0,WNW,8.1,-,N/A,,Clear,300,2012-10-05 07:52:00
3:52 AM,28.9,25.0,85,30.35,10.0,WNW,11.5,-,N/A,,Clear,300,2012-10-05 08:52:00
4:52 AM,28.9,25.0,85,30.35,10.0,WNW,11.5,-,N/A,,Clear,300,2012-10-05 09:52:00
5:52 AM,28.0,25.0,88,30.35,10.0,NW,9.2,-,N/A,,Clear,310,2012-10-05 10:52:00
6:52 AM,27.0,25.0,92,30.35,10.0,WNW,10.4,-,N/A,,Clear,290,2012-10-05 11:52:00
7:52 AM,26.1,24.1,92,30.36,10.0,WNW,10.4,-,N/A,,Clear,300,2012-10-05 12:52:00
8:52 AM,28.9,25.0,85,30.38,10.0,NNW,13.8,-,N/A,,Clear,330,2012-10-05 13:52:00
9:52 AM,32.0,26.1,79,30.38,10.0,NNW,16.1,-,N/A,,Clear,330,2012-10-05 14:52:00
10:52 AM,35.1,24.1,64,30.38,10.0,NNW,20.7,24.2,N/A,,Scattered Clouds,340,2012-10-05 15:52:00
11:03 AM,35.6,24.8,65,30.32,10.0,NNW,16.1,26.5,N/A,,Mostly Cloudy,340,2012-10-05 16:03:00
11:52 AM,37.9,24.1,57,30.38,10.0,NW,20.7,26.5,N/A,,Mostly Cloudy,320,2012-10-05 16:52:00
12:11 PM,37.4,24.8,60,30.33,10.0,NW,18.4,28.8,N/A,,Scattered Clouds,310,2012-10-05 17:11:00
12:52 PM,39.9,24.1,53,30.38,10.0,NNW,19.6,27.6,N/A,,Partly Cloudy,340,2012-10-05 17:52:00
1:52 PM,39.9,21.9,49,30.37,10.0,NNW,23.0,29.9,N/A,,Partly Cloudy,340,2012-10-05 18:52:00
2:52 PM,43.0,21.0,42,30.35,10.0,NNW,18.4,27.6,N/A,,Clear,340,2012-10-05 19:52:00
3:52 PM,44.1,19.9,38,30.33,10.0,NW,19.6,27.6,N/A,,Clear,320,2012-10-05 20:52:00
4:52 PM,44.1,19.0,37,30.32,10.0,NW,18.4,24.2,N/A,,Clear,320,2012-10-05 21:52:00
5:52 PM,43.0,19.9,40,30.33,10.0,NNW,17.3,23.0,N/A,,Partly Cloudy,340,2012-10-05 22:52:00
6:52 PM,39.9,21.0,47,30.35,10.0,North,9.2,-,N/A,,Clear,350,2012-10-05 23:52:00
7:52 PM,34.0,21.9,61,30.39,10.0,NNE,8.1,-,N/A,,Clear,20,2012-10-06 00:52:00
8:52 PM,32.0,21.9,66,30.40,10.0,NNE,9.2,-,N/A,,Clear,20,2012-10-06 01:52:00
9:52 PM,30.0,21.0,69,30.41,10.0,North,8.1,-,N/A,,Clear,360,2012-10-06 02:52:00
10:52 PM,23.0,19.0,85,30.41,10.0,North,3.5,-,N/A,,Clear,350,2012-10-06 03:52:00
11:52 PM,27.0,21.9,81,30.41,10.0,North,6.9,-,N/A,,Clear,360,2012-10-06 04:52:00